This is the latest recevied weather packets stored in our database for station/object IW2NTF-3. If no packets are shown the sender has not sent any weather packets the latest 10 day(s).
| Time | Temp. | Humidity | Pressure | Rain* | Wind** | Luminosity | Snow |
|---|---|---|---|---|---|---|---|
| 1787925483 | 31.11° C | 63% | 1013.7 hPa | 0 mm | - | 519 W/m² | - |
| 1787925423 | 31.11° C | 64% | 1013.7 hPa | 0 mm | - | 464 W/m² | - |
| 1787925363 | 31.11° C | 64% | 1013.7 hPa | 0 mm | - | 738 W/m² | - |
| 1787925303 | 31.11° C | 64% | 1013.6 hPa | 0 mm | - | 738 W/m² | - |
| 1787925243 | 31.11° C | 65% | 1013.6 hPa | 0 mm | - | 738 W/m² | - |
| 1787925183 | 31.11° C | 65% | 1013.6 hPa | 0 mm | - | 738 W/m² | - |
| 1787925123 | 31.11° C | 65% | 1013.6 hPa | 0 mm | - | 738 W/m² | - |
| 1787925063 | 31.11° C | 65% | 1013.7 hPa | 0 mm | - | 738 W/m² | - |
| 1787925003 | 31.11° C | 65% | 1013.8 hPa | 0 mm | - | 738 W/m² | - |
| 1787924943 | 30.56° C | 65% | 1013.8 hPa | 0 mm | - | 738 W/m² | - |
| 1787924883 | 30.56° C | 65% | 1013.9 hPa | 0 mm | - | 738 W/m² | - |
| 1787924823 | 30.56° C | 65% | 1013.9 hPa | 0 mm | - | 345 W/m² | - |
| 1787924763 | 30.56° C | 65% | 1013.9 hPa | 0 mm | - | 251 W/m² | - |
| 1787924703 | 30.56° C | 64% | 1013.9 hPa | 0 mm | - | 230 W/m² | - |
| 1787924643 | 30.56° C | 64% | 1013.9 hPa | 0 mm | - | 220 W/m² | - |
| 1787924583 | 30.56° C | 64% | 1014 hPa | 0 mm | - | 209 W/m² | - |
| 1787924523 | 30.56° C | 64% | 1013.9 hPa | 0 mm | - | 186 W/m² | - |
| 1787924463 | 30.56° C | 64% | 1013.9 hPa | 0 mm | - | 146 W/m² | - |
| 1787924403 | 30.56° C | 64% | 1013.9 hPa | 0 mm | - | 141 W/m² | - |
| 1787924343 | 30.56° C | 64% | 1013.9 hPa | 0 mm | - | 144 W/m² | - |
| 1787924283 | 30.56° C | 64% | 1013.6 hPa | 0 mm | - | 149 W/m² | - |
| 1787924223 | 31.11° C | 64% | 1013.4 hPa | 0 mm | - | 162 W/m² | - |
| 1787924163 | 31.11° C | 63% | 1013.4 hPa | 0 mm | - | 179 W/m² | - |
| 1787924103 | 31.11° C | 63% | 1013.4 hPa | 0 mm | - | 223 W/m² | - |
| 1787924043 | 31.11° C | 63% | 1013.4 hPa | 0 mm | - | 244 W/m² | - |
* Rain latest hour (hover to see other rain measurements)
** Current wind speed in m/s (hover to see current wind gust speed)